Volver al catálogo

USA 207

ActivoMilitarGEO
NORAD 35815·PAYLOAD·🇺🇸 United States

Lanzado Sep 8, 2009 desde Cape Canaveral Space Force Station

Loading…

TLE

ActualizadoSource: Mike McCants

Época: Sep 14, 2026, 05:30 UTC

1 35815U 09047A   26257.22929376  .00000000  00000-0  00000-0 0    07
2 35815   1.4259  87.7532 0005954 299.6138  60.3314  1.00263576  5291

Sigue USA 207 en tiempo real con AllMySat

Download on the App Store